Find Starlink 33935

NORAD ID: 63791 Int'l Des: 2025-091 Owner: SPXS Country: US Constellation: starlink operational
LEOCIRCULAR

当前视图

正在加载3D地球...

About Starlink 33935

Starlink 33935 (NORAD 63791) is a starlink constellation satellite (v2 mini) launched May 2, 2025 by SPXS of US. It operates in LEO, CIRCULAR orbit with a mass of 575.00 kg.

即将过境

Passes for default location (London). Set your location on the main map for personalized predictions.

高度历史

Loading altitude history...

两行轨道根数

1 63791U 25091S 26265.60218790 .00015676 00000-0 57772-3 0 9993
2 63791 43.0012 20.7966 0001810 277.3533 82.7113 15.27593714 79123
Epoch: Sep 22, 2026 • Age: 7 hours

当前状态

高度 494.2 km
远地点 / 近地点 N/A
速度 7.62 km/s
星下点 -40.61°S, 64°W
发射日期 May 2, 2025
运行时间 1.3 years
类型 internet

技术详情

分类 Payload
质量 575.00 kg
干质量 530.00 kg
长度 0.30 m
跨度 29.00 m
形状 ? Box + pan
制造商 SPXS
平台类型 Starlink V2MO
阶段状态 In Orbit
所有者/国家 SPXS/US

Most Searched